Bartow, FL

9:37 PM EST on February 24, 2017 (GMT -0500)
Bartow Municipal

Weather History for KBOW - October, 2011

Change the Weather History Date:

Thursday, October 27, 2011

  Actual Average Record
Temperature  
Mean Temperature 73 °F -  
Max Temperature 89 °F 83 °F 91 °F (1984)
Min Temperature 57 °F 60 °F 46 °F (2005)
Cooling Degree Days 8    
Growing Degree Days 23 (Base 50)    
Moisture  
Dew Point 60 °F    
Average Humidity 70    
Maximum Humidity 100    
Minimum Humidity 31    
Precipitation  
Precipitation 0.00 in - - ()
Sea Level Pressure  
Sea Level Pressure 29.95 in    
Wind  
Wind Speed 1 mph (West)    
Max Wind Speed 8 mph    
Max Gust Speed -    
Visibility 9 miles    
Events Fog    
Averages and records for this station are not official NWS values.
T = Trace of Precipitation, MM = Missing Value Source: NWS Daily Summary

Daily Weather History Graph

Daily Weather History Graph

Search for Another Location

Airport or City:

Trip Planner

Search our weather history database for the weather conditions in past years. The results will help you decide how hot, cold, wet, or windy it might be!

Date:

Astronomy

Oct. 27, 2011 Rise Set
Actual Time 7:34 AM EDT 6:46 PM EDT
Civil Twilight 7:10 AM EDT 7:10 PM EDT
Nautical Twilight 6:43 AM EDT 7:38 PM EDT
Astronomical Twilight 6:15 AM EDT 8:05 PM EDT
Moon 8:26 AM EDT (10/27) 7:26 PM EDT (10/27)
Length of Visible Light 12h 00m
Length of Day
11h 12m
New Moon, 1% of the Moon is Illuminated
Oct 27
New Moon
Nov 2
First Quarter
Nov 10
Full
Nov 18
Last Quarter
Nov 25
New

Hourly Weather History & Observations

Time (EDT) Temp. Heat Index Dew Point Humidity Pressure Visibility Wind Dir Wind Speed Gust Speed Precip Events Conditions
12:15 AM 62.6 °F - 62.6 °F 100% 30.01 in 10.0 mi Calm Calm - N/A   Clear
12:35 AM 62.6 °F - 62.6 °F 100% 30.00 in 9.0 mi Calm Calm - N/A   Clear
12:55 AM 62.6 °F - 62.6 °F 100% 30.00 in 9.0 mi Calm Calm - N/A   Clear
1:15 AM 62.6 °F - 62.6 °F 100% 30.00 in 10.0 mi Calm Calm - N/A   Clear
1:35 AM 62.6 °F - 62.6 °F 100% 29.99 in 9.0 mi Calm Calm - N/A   Clear
1:55 AM 62.6 °F - 62.6 °F 100% 29.98 in 8.0 mi ENE 3.5 mph - N/A   Clear
2:15 AM 60.8 °F - 60.8 °F 100% 29.98 in 10.0 mi Calm Calm - N/A   Clear
2:35 AM 60.8 °F - 60.8 °F 100% 29.98 in 10.0 mi Calm Calm - N/A   Clear
2:55 AM 60.8 °F - 60.8 °F 100% 29.98 in 8.0 mi Calm Calm - N/A   Clear
3:35 AM 57.2 °F - 57.2 °F 100% 29.96 in 9.0 mi Calm Calm - N/A   Clear
3:55 AM 57.2 °F - 57.2 °F 100% 29.96 in 2.0 mi Calm Calm - N/A   Clear
4:15 AM 57.2 °F - 57.2 °F 100% 29.96 in 7.0 mi Calm Calm - N/A   Clear
4:35 AM 57.2 °F - 57.2 °F 100% 29.96 in 10.0 mi Calm Calm - N/A   Clear
4:55 AM 57.2 °F - 57.2 °F 100% 29.96 in 7.0 mi Calm Calm - N/A   Clear
5:15 AM 57.2 °F - 57.2 °F 100% 29.96 in 5.0 mi Calm Calm - N/A   Clear
5:35 AM 57.2 °F - 57.2 °F 100% 29.96 in 8.0 mi Calm Calm - N/A   Clear
5:55 AM 57.2 °F - 57.2 °F 100% 29.95 in 1.2 mi Calm Calm - N/A   Clear
6:35 AM 57.2 °F - 57.2 °F 100% 29.96 in 0.5 mi Calm Calm - N/A Fog Fog
7:15 AM 57.2 °F - 57.2 °F 100% 29.97 in 8.0 mi Calm Calm - N/A   Clear
7:30 AM 57.2 °F - 57.2 °F 100% 29.97 in 4.0 mi Calm Calm - N/A   Partly Cloudy
7:55 AM 57.2 °F - 57.2 °F 100% 29.97 in 5.0 mi Calm Calm - N/A   Scattered Clouds
8:54 AM 66.2 °F - 64.4 °F 94% 29.99 in 7.0 mi Calm Calm - N/A   Scattered Clouds
9:51 AM 71.6 °F - 66.2 °F 83% 30.00 in 10.0 mi Calm Calm - N/A   Scattered Clouds
10:50 AM 77.0 °F - 62.6 °F 61% 29.99 in 12.0 mi Calm Calm - N/A   Scattered Clouds
11:50 AM 80.6 °F 81.5 °F 60.8 °F 51% 29.98 in 15.0 mi Variable 4.6 mph - N/A   Partly Cloudy
12:15 PM 87.8 °F 86.5 °F 57.2 °F 35% 29.97 in 9.0 mi SE 3.5 mph - N/A   Clear
12:35 PM 86.0 °F 84.9 °F 57.2 °F 37% 29.96 in 9.0 mi Calm Calm - N/A   Clear
12:55 PM 87.8 °F 86.5 °F 57.2 °F 35% 29.96 in 9.0 mi North - - N/A   Clear
1:15 PM 87.8 °F 86.5 °F 57.2 °F 35% 29.95 in 8.0 mi West 5.8 mph - N/A   Clear
1:35 PM 87.8 °F 86.5 °F 57.2 °F 35% 29.94 in 9.0 mi Calm Calm - N/A   Clear
1:55 PM 89.6 °F 87.7 °F 55.4 °F 31% 29.93 in 9.0 mi Calm Calm - N/A   Clear
2:15 PM 87.8 °F 86.5 °F 57.2 °F 35% 29.92 in 9.0 mi Calm Calm - N/A   Clear
2:35 PM 89.6 °F 88.1 °F 57.2 °F 33% 29.91 in 9.0 mi West 3.5 mph - N/A   Clear
2:55 PM 89.6 °F 88.1 °F 57.2 °F 33% 29.91 in 10.0 mi WNW 8.1 mph - N/A   Clear
3:15 PM 86.0 °F 84.9 °F 57.2 °F 37% 29.91 in 9.0 mi Calm Calm - N/A   Clear
3:35 PM 84.2 °F 83.5 °F 57.2 °F 40% 29.91 in 9.0 mi West 4.6 mph - N/A   Clear
3:55 PM 87.8 °F 86.5 °F 57.2 °F 35% 29.90 in 8.0 mi Calm Calm - N/A   Clear
4:15 PM 86.0 °F 84.9 °F 57.2 °F 37% 29.90 in 9.0 mi Calm Calm - N/A   Clear
4:35 PM 87.8 °F 86.5 °F 57.2 °F 35% 29.89 in 8.0 mi Calm Calm - N/A   Clear
4:55 PM 86.0 °F 85.4 °F 59.0 °F 40% 29.89 in 10.0 mi Calm Calm - N/A   Clear
5:15 PM 86.0 °F 85.4 °F 59.0 °F 40% 29.89 in 9.0 mi SSE 3.5 mph - N/A   Clear
5:35 PM 82.4 °F 82.9 °F 60.8 °F 48% 29.89 in 8.0 mi South 4.6 mph - N/A   Clear
5:55 PM 80.6 °F 81.5 °F 60.8 °F 51% 29.89 in 9.0 mi Calm Calm - N/A   Clear
6:15 PM 80.6 °F 81.5 °F 60.8 °F 51% 29.90 in 9.0 mi Calm Calm - N/A   Clear
6:35 PM 78.8 °F - 62.6 °F 57% 29.91 in 9.0 mi Calm Calm - N/A   Clear
6:55 PM 77.0 °F - 64.4 °F 65% 29.91 in 9.0 mi Calm Calm - N/A   Clear
7:15 PM 75.2 °F - 64.4 °F 69% 29.92 in 10.0 mi Calm Calm - N/A   Partly Cloudy
7:35 PM 75.2 °F - 64.4 °F 69% 29.92 in 10.0 mi Calm Calm - N/A   Partly Cloudy
7:55 PM 75.2 °F - 64.4 °F 69% 29.93 in 10.0 mi Calm Calm - N/A   Scattered Clouds
8:15 PM 75.2 °F - 62.6 °F 65% 29.94 in 10.0 mi Calm Calm - N/A   Scattered Clouds
8:35 PM 75.2 °F - 62.6 °F 65% 29.95 in 10.0 mi Calm Calm - N/A   Partly Cloudy
8:55 PM 75.2 °F - 62.6 °F 65% 29.95 in 10.0 mi Calm Calm - N/A   Clear
9:15 PM 75.2 °F - 62.6 °F 65% 29.96 in 10.0 mi Calm Calm - N/A   Clear
9:35 PM 75.2 °F - 64.4 °F 69% 29.96 in 10.0 mi NNW 5.8 mph - N/A   Clear
9:55 PM 75.2 °F - 64.4 °F 69% 29.97 in 9.0 mi NNW 3.5 mph - N/A   Clear
10:15 PM 73.4 °F - 64.4 °F 73% 29.97 in 10.0 mi Calm Calm - N/A   Clear
10:35 PM 73.4 °F - 64.4 °F 73% 29.97 in 10.0 mi Calm Calm - N/A   Clear
10:55 PM 73.4 °F - 64.4 °F 73% 29.97 in 10.0 mi Calm Calm - N/A   Clear
11:15 PM 71.6 °F - 64.4 °F 78% 29.96 in 10.0 mi Calm Calm - N/A   Clear
11:35 PM 71.6 °F - 64.4 °F 78% 29.97 in 10.0 mi Calm Calm - N/A   Clear
11:55 PM 71.6 °F - 64.4 °F 78% 29.97 in 9.0 mi Calm Calm - N/A   Clear